2023-164B

Last updated on Tue Oct 31 2023 00:02:07 GMT+0000 (Coordinated Universal Time)

1 58147U 23164B 23303.53327831 .02031287 76557-5 87272-3 0 9991 2 58147 41.4702 50.0028 0078241 154.1600 206.3684 16.14237282 701

Satellite not in orbit